Location: Berkeley
(37.8716°N, 122.2727°W)
Time: 14:48:28
(UTC-07:00)

Tiangong - Pass Details

Date: 27 September 2021
Orbit: 382 x 385 km, 41.5° (Epoch: 16 October)

Event Time Altitude Azimuth Distance (km) Brightness Sun altitude
Exits shadow 05:14:10 37° 126° (SE) 609 2.3 -21.8°
Drops below altitude 10° 05:16:39 10° 81° (E) 1,396 5.0 -21.3°
Sets 05:18:47 0° 74° (ENE) 2,250 6.5 -20.9°
